Home > Weather > Biel > Past weeks

Flag for Switzerland Weather for the Past 2 Weeks in Biel, Switzerland

Now
35 °F

Chilly.


Feels Like: 27 °F
Forecast: 32 / 42 °F
Wind: 9 mph from Southwest

Location: Grenchen

Current Time: Feb 10, 2016 at 7:55:13 PM

Latest Report: Feb 10, 2016 at 7:00 PM


Visibility: N/A

Pressure: 29.78 "Hg

Humidity: 95%

Dew point: 33 °F

Location of BielLocation

Historic Weather in Biel — Graph

°F

Biel Temperature Yesterday

Maximum temperature yesterday: 47 °F (at 7:00 AM)
Minimum temperature yesterday: 42 °F (at 8:00 PM)
Average temperature yesterday: 45 °F

High & Low Weather Summary for the Past Weeks

 TemperatureHumidityPressure
High57 °F (Feb 1, 1:00 PM)100% (Jan 27, 3:00 AM)30.56 "Hg (Jan 27, 3:00 AM)
Low26 °F (Jan 30, 6:00 AM)49% (Jan 30, 3:00 PM)29.38 "Hg (Feb 9, 6:00 PM)
Average42 °F89%30.19 "Hg
* Reported Jan 26 6:00 PM — Feb 10 6:00 PM, Biel, Weather by CustomWeather, © 2016

Note: Actual official high and low records may vary slightly from our data, if they occured in-between our weather recording intervals... More about our weather records

Advertising

Biel Weather History for the Previous 24 Hours

 ConditionsComfort  
Time TempWeatherWind HumidityBarometerVisibility
6:00 PM
Wed, Feb 10
37 °FChilly.12 mph78%29.75 "HgN/A
5:00 PM38 °FChilly.14 mph75%29.72 "HgN/A
4:00 PM38 °FChilly.16 mph75%29.71 "HgN/A
3:00 PM38 °FChilly.17 mph74%29.69 "HgN/A
2:00 PM38 °FChilly.17 mph76%29.69 "HgN/A
1:00 PM40 °FChilly.20 mph73%29.68 "HgN/A
12:00 PM38 °FChilly.17 mph76%29.70 "HgN/A
11:00 AM38 °FChilly.16 mph78%29.69 "HgN/A
10:00 AM35 °FChilly.12 mph86%29.69 "HgN/A
9:00 AM36 °FChilly.13 mph75%29.67 "HgN/A
8:00 AM35 °FChilly.9 mph84%29.64 "HgN/A
7:00 AM34 °FChilly.13 mph95%29.63 "HgN/A
6:00 AM33 °FChilly.15 mph99%29.61 "HgN/A
5:00 AM34 °FChilly.15 mph93%29.59 "HgN/A
9:00 PM
Tue, Feb 9
43 °FQuite cool.16 mph76%29.44 "HgN/A
8:00 PM42 °FQuite cool.8 mph83%29.44 "HgN/A
7:00 PM42 °FQuite cool.15 mph82%29.38 "HgN/A
Weather by CustomWeather, © 2016

See weather overviewHow to use our weather pages